Regional Weather Roundup
Issued by NWS Jackson, KY

Home | Current Version | Previous Version | Text Only | Print | Product List | Glossary Off
Versions: 1 2 3 4 5 6 7 8 9 10 11 12 13 14 15 16 17 18 19 20 21 22 23 24 25 26 27 28 29 30 31 32 33 34 35 36 37 38 39 40 41 42 43 44 45 46 47 48 49 50

000
ASUS43 KJKL 280610
RWRJKL

EAST KENTUCKY HOURLY WEATHER ROUNDUP
NATIONAL WEATHER SERVICE JACKSON KY
200 AM EDT SAT MAR 28 2015

NOTE: "FAIR" INDICATES FEW OR NO CLOUDS BELOW 12,000 FEET WITH
NO SIGNIFICANT WEATHER AND/OR OBSTRUCTIONS TO VISIBILITY.

* THESE REPORTS ARE NOT UNDER NWS QUALITY CONTROL AND MAY NOT
  REPORT WEATHER SUCH AS PRECIPITATION AND FOG.

KYZ079-080-083-085-087-088-110-112-115-119-120-280700
...EASTERN KENTUCKY...

CITY           SKY/WX    TMP DP  RH WIND       PRES   REMARKS
JACKSON        CLOUDY    28  14  55 VRB5      30.04F WCI  23
6HR MIN TEMP:  28; 6HR MAX TEMP:  35;

LONDON         CLOUDY    31  18  58 N7        30.07R WCI  24
6HR MIN TEMP:  31; 6HR MAX TEMP:  37; 6HR PCP: TRACE;

SOMERSET*      CLOUDY    30  19  64 N8        30.11S WCI  23
MONTICELLO*    MOCLDY    33  23  67 N10       30.12S WCI  25
6HR MIN TEMP:  33; 6HR MAX TEMP:  38; 6HR PCP: TRACE;

MIDDLESBORO*   CLOUDY    32  25  74 N6        30.06S WCI  26
6HR MIN TEMP:  32; 6HR MAX TEMP:  39;

HAZARD APT*    CLOUDY    30  19  64 CALM      30.05S
BLACK MTN*       N/A     18  18 100 VRB9        N/A  WCI   6
PIKEVILLE APT* CLOUDY    27  19  74 N7        30.02S WCI  19
BIG SANDY*     CLOUDY    28  18  66 N5        30.04F WCI  23
6HR MIN TEMP:  28; 6HR MAX TEMP:  36;

MOREHEAD APT*  CLOUDY    27  18  69 VRB5      30.10S WCI  21
$$

KYZ035-036-041-042-044-050-067-078-099-280700
...CENTRAL KENTUCKY...

CITY           SKY/WX    TMP DP  RH WIND       PRES   REMARKS
MT STERLING*   LGT SNOW  28  23  80 N5        30.10S WCI  23
FLEMING/MASON* CLOUDY    27  14  59 NW3       30.10F
DANVILLE*      CLOUDY    28  18  64 N6        30.12S WCI  22
RICHMOND*      CLOUDY    28  14  54 NW8       30.09S WCI  20
LEXINGTON      CLEAR     25  16  68 N8        30.10S WCI  16
6HR MIN TEMP:  25; 6HR MAX TEMP:  33;

FRANKFORT      CLEAR     26  16  65 NW7       30.11S WCI  18
6HR MIN TEMP:  26; 6HR MAX TEMP:  33;

$$

KYZ091>093-OHZ055-061-077-WVZ005-015-034-035-042-280700
...SOUTHERN OHIO/WEST VIRGINIA...

CITY           SKY/WX    TMP DP  RH WIND       PRES   REMARKS
COVINGTON      PTCLDY    25  12  58 N13       30.11S WCI  14
COLUMBUS       PTCLDY    21  15  78 N8        30.10R WCI  11
DAYTON         MOCLDY    24  14  65 N6        30.11F WCI  17
WILMINGTON     PTCLDY    21  12  68 N6        30.09R WCI  13
HUNTINGTON     CLOUDY    27  12  53 N8        30.07S WCI  19
CHARLESTON     CLOUDY    28   8  43 NW10G25   30.04S WCI  19
PINEVILLE*     FLURRIES  29  24  79 MISG      30.02R
BECKLEY        LGT SNOW  23  18  81 NW9       29.91S WCI  13
BLUEFIELD      FLURRIES  26  18  71 NW12G17   29.88R WCI  16
$$

VAZ002-007-008-TNZ017-027-036-066-071-280700
...SOUTHWEST VIRGINIA/EAST TENNESSEE...

CITY           SKY/WX    TMP DP  RH WIND       PRES   REMARKS
WISE*          LGT SNOW  27  27 100 N8        29.94R WCI  18
JONESVILLE*    LGT RAIN  32  23  69 NW7       30.04R WCI  26
ABINGDON*      CLOUDY    32  23  70 NW13G22   29.93S WCI  22
BRISTOL        CLOUDY    34  24  67 NW6       29.97R WCI  29
KNOXVILLE      FLURRIES  35  24  64 NW7       30.05R WCI  29
OAK RIDGE      CLOUDY    36  21  54 N7        30.07R WCI  30
CROSSVILLE     CLOUDY    31  20  63 NW12      30.04S WCI  22
NASHVILLE      CLOUDY    34  20  56 N7        30.15S WCI  28
$$

...KEY TO REMARKS...
VSB - VISIBILITY IN MILES
WCI - WIND CHILL INDEX
HX  - HEAT INDEX

$$



USA.gov is the U.S. government's official web portal to all federal, state and local government web resources and services.